Home   Weather   Coachella   Past weeks
Flag for USA

Past Weather in Coachella, California, USA — Yesterday and Last 2 Weeks

Now
64 °F

Clear.


Feels Like: 64 °F
Forecast: 90 / 59 °F
Wind: 3 mph from Northeast

Location: Thermal Airport

Current Time: Oct 14, 2019 at 4:22:45 am

Latest Report: Oct 14, 2019 at 2:52 am


Visibility: 10 mi

Pressure: 29.77 "Hg

Humidity: 52%

Dew Point: 46 °F

Location of CoachellaLocation

Past Weather in Coachella — Graph

°F

Coachella Temperature Yesterday

Maximum temperature yesterday: 89 °F (at 1:52 pm)
Minimum temperature yesterday: 46 °F (at 5:52 am)
Average temperature yesterday: 68 °F

High & Low Weather Summary for the Past Weeks

 TemperatureHumidityPressure
High100 °F (Oct 8, 2:52 pm)66% (Oct 3, 5:52 am)30.07 "Hg (Oct 3, 5:52 am)
Low46 °F (Oct 12, 4:52 am)3% (Oct 10, 2:52 pm)29.56 "Hg (Oct 9, 4:52 pm)
Average73 °F28%29.81 "Hg
* Reported Sep 29 2:52 am — Oct 14 2:52 am, Coachella. Weather by CustomWeather, © 2019

Note: Actual official high and low records may vary slightly from our data, if they occured in-between our weather recording intervals... More about our weather records

Advertising

Coachella Weather History for the Previous 24 Hours

Scroll right to see more
 ConditionsComfort  
Time TempWeatherWind HumidityBarometerVisibility
2:52 am
Mon, Oct 14
64 °FClear.3 mph52%29.77 "Hg10 mi
1:52 am70 °FClear.9 mph47%29.78 "Hg10 mi
12:52 am71 °FClear.9 mph44%29.77 "Hg10 mi
11:52 pm
Sun, Oct 13
67 °FClear.6 mph44%29.77 "Hg10 mi
10:52 pm67 °FClear.6 mph35%29.76 "Hg10 mi
9:52 pm70 °FClear.8 mph23%29.76 "Hg10 mi
8:52 pm60 °FClear.No wind38%29.75 "Hg10 mi
7:52 pm65 °FClear.5 mph34%29.74 "Hg10 mi
6:52 pm71 °FClear.5 mph24%29.73 "Hg10 mi
5:52 pm81 °FSunny.No wind16%29.72 "Hg10 mi
4:52 pm87 °FSunny.10 mph10%29.72 "Hg10 mi
3:52 pm88 °FSunny.12 mph8%29.73 "Hg10 mi
2:52 pm89 °FSunny.10 mph7%29.74 "Hg10 mi
1:52 pm89 °FSunny.13 mph8%29.76 "Hg10 mi
12:52 pm87 °FSunny.9 mph14%29.79 "Hg10 mi
11:52 am84 °FSunny.5 mph15%29.82 "Hg10 mi
10:52 am79 °FSunny.No wind20%29.84 "Hg10 mi
9:52 am74 °FMild.No wind27%29.85 "Hg10 mi
8:52 am69 °FSunny.No wind23%29.84 "Hg10 mi
7:52 am54 °FSunny.No wind51%29.82 "Hg10 mi
6:52 am52 °FSunny.6 mph38%29.80 "Hg10 mi
5:52 am46 °FClear.3 mph58%29.79 "Hg10 mi
4:52 am49 °FClear.5 mph57%29.78 "Hg10 mi
Weather by CustomWeather, © 2019

See weather overview